Retour au catalogue

NOAA 16 DEB

ActifSSO
NORAD 41297·DEBRIS·🇺🇸 United States

Lancé Sep 21, 2000 depuis Vandenberg Space Force Base

Loading…

Prochains Passages (prochaines 24 heures)

TLE

FraisSource: Space-Track

Époque: Sep 14, 2026, 09:47 UTC

1 41297U 00055GZ  26257.40793033  .00002530  00000-0  12679-2 0  9991
2 41297  98.9546 322.5232 0063542 159.0526 201.3272 14.16498546548656

Suivez NOAA 16 DEB en temps réel avec AllMySat

Download on the App Store